Alamogordo, NM

10:05 PM MST on December 15, 2019 (GMT -0700)
Alamogordo-White Sands Regional

Weather History for KALM - November, 2019

Change the Weather History Date:

Thursday, November 21, 2019

  Actual Average Record
Temperature  
Mean Temperature 52 °F -  
Max Temperature 64 °F 63 °F 75 °F (1950)
Min Temperature 41 °F 34 °F 11 °F (1956)
Degree Days  
Heating Degree Days 12    
Growing Degree Days 2 (Base 50)    
Moisture  
Dew Point 41 °F    
Average Humidity 69    
Maximum Humidity 100    
Minimum Humidity 40    
Precipitation  
Precipitation 0.28 in - - ()
Sea Level Pressure  
Sea Level Pressure 29.98 in    
Wind  
Wind Speed 9 mph ()    
Max Wind Speed 26 mph    
Max Gust Speed 33 mph    
Visibility 9.3 miles    
Events Rain    
Averages and records for this station are not official NWS values.
T = Trace of Precipitation, MM = Missing Value Source: Averaged Metar Reports

Daily Weather History Graph

Daily Weather History Graph

Search for Another Location

Airport or City:

Astronomy

Nov. 21, 2019 Rise Set
Actual Time 6:39 AM MST 4:59 PM MST
Civil Twilight 6:13 AM MST 5:26 PM MST
Nautical Twilight 5:43 AM MST 5:56 PM MST
Astronomical Twilight 5:13 AM MST 6:25 PM MST
Moon 1:02 AM MST (11/21) 2:08 PM MST (11/21)
Length of Visible Light 11h 13m
Length of Day
10h 20m
Waning Crescent, 29% of the Moon is Illuminated
Nov 21
Waning Crescent
Nov 26
New
Dec 3
First Quarter
Dec 11
Full
Dec 18
Last Quarter

Hourly Weather History & Observations

Time (MST) Temp. Windchill Dew Point Humidity Pressure Visibility Wind Dir Wind Speed Gust Speed Precip Events Conditions
12:35 AM 51.8 °F - 42.8 °F 71% 29.91 in 10.0 mi South 9.2 mph - N/A   Overcast
12:55 AM 51.8 °F - 42.8 °F 71% 29.91 in 10.0 mi South 9.2 mph - N/A   Mostly Cloudy
1:15 AM 53.6 °F - 41.0 °F 62% 29.92 in 10.0 mi South 11.5 mph - N/A   Mostly Cloudy
1:35 AM 53.6 °F - 42.8 °F 67% 29.92 in 10.0 mi South 10.4 mph - N/A   Mostly Cloudy
1:55 AM 55.4 °F - 42.8 °F 63% 29.92 in 10.0 mi SSE 10.4 mph - N/A   Overcast
2:15 AM 55.4 °F - 42.8 °F 63% 29.92 in 10.0 mi South 5.8 mph - N/A   Overcast
2:35 AM 53.6 °F - 42.8 °F 67% 29.92 in 10.0 mi South 8.1 mph - N/A   Scattered Clouds
2:55 AM 55.4 °F - 41.0 °F 58% 29.93 in 10.0 mi South 9.2 mph - N/A   Clear
3:35 AM 53.6 °F - 41.0 °F 62% 29.93 in 10.0 mi SSE 8.1 mph - N/A   Clear
4:35 AM 50.0 °F - 41.0 °F 71% 29.92 in 10.0 mi SSE 6.9 mph - N/A   Clear
4:55 AM 48.2 °F - 41.0 °F 76% 29.92 in 10.0 mi SSW 8.1 mph - N/A   Clear
5:15 AM 46.4 °F 44.3 °F 41.0 °F 81% 29.92 in 10.0 mi South 4.6 mph - N/A   Partly Cloudy
5:35 AM 46.4 °F 43.5 °F 41.0 °F 81% 29.93 in 10.0 mi SSW 5.8 mph - N/A   Partly Cloudy
5:55 AM 46.4 °F 44.3 °F 41.0 °F 81% 29.93 in 10.0 mi South 4.6 mph - N/A   Clear
6:15 AM 46.4 °F 44.3 °F 41.0 °F 81% 29.93 in 10.0 mi WSW 4.6 mph - N/A   Clear
6:35 AM 48.2 °F - 41.0 °F 76% 29.93 in 10.0 mi SSE 9.2 mph - N/A   Partly Cloudy
6:55 AM 48.2 °F - 41.0 °F 76% 29.94 in 10.0 mi SSE 10.4 mph - N/A   Clear
7:15 AM 50.0 °F - 41.0 °F 71% 29.94 in 10.0 mi SSE 10.4 mph - N/A   Clear
8:15 AM 59.0 °F - 42.8 °F 55% 29.93 in 10.0 mi South 8.1 mph - N/A   Scattered Clouds
8:35 AM 59.0 °F - 41.0 °F 51% 29.93 in 10.0 mi SSE 13.8 mph - N/A   Mostly Cloudy
8:55 AM 60.8 °F - 39.2 °F 45% 29.94 in 10.0 mi South 13.8 mph 20.7 mph N/A   Mostly Cloudy
9:15 AM 60.8 °F - 39.2 °F 45% 29.94 in 10.0 mi SSE 15.0 mph - N/A   Mostly Cloudy
9:35 AM 60.8 °F - 39.2 °F 45% 29.94 in 10.0 mi SSE 17.3 mph 21.9 mph N/A   Mostly Cloudy
9:55 AM 60.8 °F - 39.2 °F 45% 29.94 in 10.0 mi South 12.7 mph 23.0 mph N/A   Mostly Cloudy
10:15 AM 60.8 °F - 41.0 °F 48% 29.93 in 10.0 mi South 13.8 mph 18.4 mph N/A   Mostly Cloudy
10:35 AM 59.0 °F - 41.0 °F 51% 29.93 in 10.0 mi South 13.8 mph 21.9 mph N/A   Overcast
10:55 AM 62.6 °F - 41.0 °F 45% 29.92 in 10.0 mi South 26.5 mph 33.4 mph N/A   Mostly Cloudy
11:15 AM 60.8 °F - 39.2 °F 45% 29.91 in 10.0 mi SSE 18.4 mph 27.6 mph N/A   Overcast
11:35 AM 64.4 °F - 39.2 °F 40% 29.90 in 10.0 mi SSE 21.9 mph 28.8 mph N/A   Mostly Cloudy
11:55 AM 62.6 °F - 39.2 °F 42% 29.89 in 10.0 mi South 15.0 mph 21.9 mph N/A   Mostly Cloudy
12:15 PM 62.6 °F - 39.2 °F 42% 29.87 in 10.0 mi South 16.1 mph 25.3 mph N/A   Mostly Cloudy
12:35 PM 64.4 °F - 39.2 °F 40% 29.86 in 10.0 mi South 19.6 mph 31.1 mph N/A   Mostly Cloudy
12:55 PM 62.6 °F - 39.2 °F 42% 29.85 in 10.0 mi South 20.7 mph 26.5 mph N/A   Mostly Cloudy
1:35 PM 53.6 °F - 41.0 °F 62% 29.92 in 10.0 mi NW 20.7 mph - N/A   Mostly Cloudy
2:55 PM 50.0 °F - 44.6 °F 82% 29.97 in 8.0 mi NE 11.5 mph - 0.01 in Rain Light Rain
3:15 PM 50.0 °F - 44.6 °F 82% 29.97 in 10.0 mi NNE 6.9 mph - N/A   Overcast
3:35 PM 50.0 °F - 46.4 °F 87% 29.99 in 2.0 mi ENE 3.5 mph - 0.06 in Rain Light Rain
3:55 PM 50.0 °F - 46.4 °F 87% 30.03 in 3.0 mi Calm Calm - 0.13 in Rain Light Rain
4:15 PM 48.2 °F - 46.4 °F 93% 30.02 in 3.0 mi Calm Calm - 0.02 in Rain Light Rain
4:35 PM 48.2 °F - 46.4 °F 93% 30.04 in 4.0 mi NE 3.5 mph - 0.05 in Rain Light Rain
4:55 PM 48.2 °F - 46.4 °F 93% 30.05 in 8.0 mi ESE 6.9 mph - 0.07 in Rain Light Rain
5:15 PM 46.4 °F 44.3 °F 46.4 °F 100% 30.06 in 4.0 mi ESE 4.6 mph - 0.05 in Rain Light Rain
5:35 PM 46.4 °F 41.5 °F 42.8 °F 87% 30.02 in 8.0 mi East 10.4 mph - 0.06 in   Overcast
5:55 PM 46.4 °F 41.9 °F 42.8 °F 87% 30.05 in 10.0 mi SSE 9.2 mph - 0.06 in   Mostly Cloudy
6:15 PM 46.4 °F 42.9 °F 41.0 °F 81% 30.05 in 10.0 mi SSE 6.9 mph - N/A   Mostly Cloudy
6:35 PM 48.2 °F - 39.2 °F 71% 30.04 in 10.0 mi SE 15.0 mph - 0.01 in   Overcast
6:55 PM 46.4 °F 41.9 °F 37.4 °F 71% 30.05 in 10.0 mi South 9.2 mph - 0.01 in   Mostly Cloudy
7:15 PM 46.4 °F 41.1 °F 39.2 °F 76% 30.06 in 10.0 mi South 11.5 mph - N/A   Overcast
7:35 PM 46.4 °F 41.9 °F 39.2 °F 76% 30.06 in 10.0 mi SSE 9.2 mph - N/A   Mostly Cloudy
7:55 PM 46.4 °F 42.9 °F 37.4 °F 71% 30.07 in 10.0 mi South 6.9 mph - N/A   Scattered Clouds
8:15 PM 44.6 °F 39.7 °F 37.4 °F 76% 30.08 in 10.0 mi SSE 9.2 mph - N/A   Partly Cloudy
8:35 PM 42.8 °F 37.5 °F 37.4 °F 81% 30.08 in 10.0 mi South 9.2 mph - N/A   Clear
8:55 PM 44.6 °F 39.2 °F 37.4 °F 76% 30.08 in 10.0 mi South 10.4 mph - N/A   Clear
9:15 PM 44.6 °F 39.2 °F 37.4 °F 76% 30.08 in 10.0 mi SSE 10.4 mph - N/A   Clear
9:35 PM 44.6 °F 39.7 °F 37.4 °F 76% 30.08 in 10.0 mi South 9.2 mph - N/A   Clear
9:55 PM 44.6 °F 38.8 °F 35.6 °F 71% 30.08 in 10.0 mi South 11.5 mph - N/A   Clear
10:15 PM 44.6 °F 39.2 °F 35.6 °F 71% 30.08 in 10.0 mi South 10.4 mph - N/A   Clear
10:35 PM 44.6 °F 38.8 °F 35.6 °F 71% 30.08 in 10.0 mi South 11.5 mph - N/A   Clear
10:55 PM 41.0 °F 36.4 °F 35.6 °F 81% 30.09 in 10.0 mi South 6.9 mph - N/A   Partly Cloudy
11:15 PM 41.0 °F 35.8 °F 35.6 °F 81% 30.09 in 10.0 mi SSE 8.1 mph - N/A   Scattered Clouds
11:55 PM 41.0 °F 37.1 °F 35.6 °F 81% 30.10 in 10.0 mi SSW 5.8 mph - N/A   Mostly Cloudy